Tracking 23764 objects as of 17-Oct-2021
HD Live streaming from Space Station
objects crossing your sky now

STARLINK-3091

Track STARLINK-3091 now!
10-day predictions
STARLINK-3091 is classified as:


NORAD ID: 49172
Int'l Code: 2021-082AU
Perigee: 364.3 km
Apogee: 369.2 km
Inclination: 70.0 °
Period: 91.7 minutes
Semi major axis: 6737 km
RCS: Unknown
Launch date: September 14, 2021
Source: United States (US)
Launch site: AIR FORCE WESTERN TEST RANGE (AFWTR)
aabbcc
Your satellite tracking list
Your tracking list is empty




NASA's NSSDC Master Catalog

Two Line Element Set (TLE):
1 49172U 21082AU  21289.83335648 -.00007075  00000-0 -57517-4 0  9998
2 49172  70.0015  34.8571 0003613 286.7292 250.6373 15.69758155  5233
Source of the keplerian elements: AFSPC